This is the latest recevied weather packets stored in our database for station/object NW6UP. If no packets are shown the sender has not sent any weather packets the latest 10 day(s).
| Time | Temp. | Humidity | Pressure | Rain* | Wind** | Luminosity | Snow |
|---|---|---|---|---|---|---|---|
| 1777787066 | 13.89° C | 72% | 0 hPa | 0 mm | - | - | - |
| 1777785866 | 13.89° C | 71% | 0 hPa | 0 mm | - | - | - |
| 1777784666 | 14.44° C | 71% | 1011.5 hPa | 0 mm | - | - | - |
| 1777782265 | 14.44° C | 70% | 1010.9 hPa | 0 mm | - | - | - |
| 1777781065 | 14.44° C | 69% | 1010.8 hPa | 0 mm | - | - | - |
| 1777779866 | 15° C | 68% | 0 hPa | 0 mm | - | - | - |
| 1777778665 | 15° C | 66% | 0 hPa | 0 mm | - | - | - |
| 1777777465 | 15.56° C | 65% | 1010.3 hPa | 0 mm | - | - | - |
| 1777776266 | 16.11° C | 63% | 0 hPa | 0 mm | - | - | - |
| 1777773865 | 17.22° C | 62% | 0 hPa | 0 mm | - | - | - |
| 1777772669 | 17.78° C | 62% | 0 hPa | 0 mm | - | - | - |
| 1777771465 | 18.33° C | 60% | 1010.2 hPa | 0 mm | - | - | - |
| 1777770266 | 18.89° C | 58% | 0 hPa | 0 mm | - | - | - |
| 1777769066 | 19.44° C | 56% | 1010.4 hPa | 0 mm | - | - | - |
| 1777767865 | 20° C | 56% | 1010.3 hPa | 0 mm | - | - | - |
| 1777766665 | 20.56° C | 54% | 1010.3 hPa | 0 mm | - | - | - |
| 1777765466 | 20.56° C | 55% | 1010.4 hPa | 0 mm | - | - | - |
| 1777764273 | 20.56° C | 55% | 1010.9 hPa | 0 mm | - | - | - |
| 1777763066 | 21.11° C | 53% | 1011.2 hPa | 0 mm | - | - | - |
| 1777761865 | 21.11° C | 54% | 1011.3 hPa | 0 mm | - | - | - |
| 1777760665 | 21.11° C | 53% | 1011.4 hPa | 0 mm | - | - | - |
| 1777759465 | 22.22° C | 52% | 1011.5 hPa | 0 mm | - | - | - |
| 1777758266 | 22.22° C | 52% | 1011.5 hPa | 0 mm | - | - | - |
| 1777757067 | 21.11° C | 55% | 1012 hPa | 0 mm | - | - | - |
| 1777755867 | 21.11° C | 55% | 0 hPa | 0 mm | - | - | - |
* Rain latest hour (hover to see other rain measurements)
** Current wind speed in m/s (hover to see current wind gust speed)